ICESAT-2

Last updated on Sun Jun 21 2026 00:02:52 GMT+0000 (Coordinated Universal Time)

1 43613U 18070A 26171.42893477 .00008058 00000+0 29199-3 0 9997 2 43613 92.0081 291.8551 0006110 100.1552 260.0387 15.28330924432958
UTC large
Height (km)
Speed (km/s)
/
Latitude / Longitude
Inclination (degrees)
Orbital Period (minutes)
Azimuth
Elevation
Range (km)
Doppler Factor

Next 0 passes for location: London (51.5072 / 0.1276)

No passes found over London.
ICESAT-2